FW0788 Weather Reports


Display with metric or nautical units.
time (UTC)temp
F
wind
direction
speed
MPH
gust
MPH
rain 1hr
in
rain 24hr
in
rain mn
in
humidity
%
barometer
mb
20260902164505 54 255 7.0 17.0 0.01 0.05 0.01 89 999.5
20260902163003 55 132 7.0 22.0 0.00 0.04 0.00 88 999.9
20260902161601 55 155 4.0 18.0 0.00 0.04 0.00 89 1000.3
20260902160105 54 159 3.0 20.0 0.00 0.04 0.00 89 1000.6
20260902154555 54 109 3.0 22.0 0.00 0.04 0.00 89 1000.8
20260902153053 54 343 6.0 21.0 0.00 0.04 0.00 89 1000.9
20260902151549 54 182 8.0 26.0 0.00 0.04 0.00 88 1001.3
20260902150047 54 265 3.0 15.0 0.00 0.04 0.00 89 1001.5
20260902144548 54 163 8.0 18.0 0.00 0.04 0.00 90 1001.4
20260902143041 54 129 5.0 15.0 0.00 0.04 0.00 89 1001.7
20260902141549 54 115 4.0 14.0 0.01 0.04 0.00 90 1001.9
20260902140036 53 226 0.0 9.0 0.01 0.04 0.00 90 1002.2
20260902134534 53 122 0.0 16.0 0.01 0.04 0.04 90 1002.6
20260902133040 53 140 0.0 12.0 0.02 0.04 0.04 90 1002.9
20260902131530 53 181 3.0 12.0 0.02 0.03 0.03 90 1003.0
20260902130028 53 94 3.0 10.0 0.02 0.03 0.03 91 1003.3
20260902124527 53 186 2.0 19.0 0.02 0.03 0.03 90 1003.7
20260902123023 53 188 4.0 12.0 0.02 0.02 0.02 90 1003.9
20260902121522 53 10 1.0 11.0 0.01 0.01 0.01 89 1004.1
20260902120025 53 107 2.0 9.0 0.01 0.01 0.01 89 1004.2
20260902114535 53 80 5.0 15.0 0.01 0.02 0.01 88 1004.4
20260902113021 54 154 2.0 12.0 0.00 0.02 0.00 85 1004.5
20260902111520 54 105 2.0 12.0 0.00 0.02 0.00 86 1004.7
20260902110019 54 157 3.0 12.0 0.00 0.02 0.00 85 1004.9
20260902104522 54 102 4.0 14.0 0.00 0.07 0.00 84 1005.0
20260902103022 54 177 3.0 12.0 0.00 0.07 0.00 85 1005.0
20260902101518 54 198 4.0 14.0 0.00 0.07 0.00 84 1005.1
20260902100017 54 222 1.0 11.0 0.00 0.07 0.00 83 1005.1
20260902094517 54 88 3.0 11.0 0.00 0.10 0.00 83 1004.9
20260902093016 54 182 2.0 11.0 0.00 0.10 0.00 84 1005.0
20260902091519 54 168 3.0 15.0 0.00 0.10 0.00 83 1004.9
20260902090018 54 95 2.0 9.0 0.00 0.10 0.00 83 1005.0
20260902084514 54 110 4.0 14.0 0.00 0.13 0.00 82 1005.2
20260902083012 54 193 3.0 14.0 0.00 0.13 0.00 82 1005.3
20260902081511 54 182 2.0 17.0 0.00 0.13 0.00 82 1005.2
20260902080010 54 234 2.0 16.0 0.00 0.13 0.00 82 1005.2
20260902074514 54 111 1.0 18.0 0.00 0.13 0.00 83 1005.2
20260902073009 54 147 2.0 14.0 0.00 0.13 0.00 83 1005.1
20260902071508 54 192 0.0 14.0 0.00 0.13 0.00 84 1005.0
20260902070008 53 215 4.0 18.0 0.00 0.13 0.00 86 1005.4
20260902064508 54 49 3.0 10.0 0.00 0.13 0.00 85 1005.4
20260902063007 55 163 4.0 12.0 0.00 0.13 0.00 79 1005.5
20260902061506 55 76 4.0 15.0 0.00 0.13 0.00 78 1005.7
20260902060006 56 148 6.0 17.0 0.00 0.13 0.00 76 1005.7
20260902054506 56 155 3.0 15.0 0.00 0.14 0.00 76 1005.8
20260902053006 56 109 7.0 18.0 0.00 0.14 0.00 75 1006.0
20260902051502 56 150 4.0 13.0 0.00 0.14 0.00 74 1006.0
20260902050006 56 113 2.0 8.0 0.00 0.14 0.00 75 1006.1
20260902044507 56 117 4.0 10.0 0.00 0.14 0.00 74 1006.1
20260902043102 56 92 5.0 13.0 0.00 0.14 0.00 72 1006.1
20260902041603 57 167 8.0 18.0 0.00 0.14 0.00 72 1006.2
20260902040100 56 31 3.0 11.0 0.00 0.14 0.00 73 1006.3
20260902034605 56 96 3.0 12.0 0.00 0.14 0.00 75 1006.4
20260902033058 56 192 4.0 14.0 0.00 0.14 0.00 77 1006.6
20260902031558 56 173 4.0 11.0 0.00 0.14 0.00 76 1006.7
20260902030158 55 163 4.0 10.0 0.00 0.14 0.00 78 1007.0
20260902024557 56 252 3.0 14.0 0.00 0.14 0.00 78 1007.2
20260902023056 56 196 4.0 10.0 0.00 0.14 0.00 73 1007.2
20260902021608 56 148 3.0 12.0 0.00 0.14 0.00 75 1007.4
20260902020057 56 183 2.0 9.0 0.00 0.14 0.00 75 1007.6
20260902014557 57 248 2.0 15.0 0.00 0.14 0.00 73 1007.7
20260902013054 57 175 6.0 18.0 0.00 0.14 0.00 73 1007.6
20260902011556 56 171 4.0 17.0 0.00 0.14 0.00 73 1007.8
20260902010051 56 192 5.0 12.0 0.00 0.14 0.00 72 1008.0
20260902004550 57 31 5.0 12.0 0.00 0.14 0.00 71 1008.1
20260902003046 55 171 3.0 14.0 0.00 0.14 0.00 73 1008.0
20260902001546 56 134 3.0 13.0 0.00 0.14 0.00 70 1008.0
20260902000051 56 169 5.0 15.0 0.00 0.14 0.00 72 1008.1
20260901234546 55 167 6.0 15.0 0.00 0.14 0.00 73 1008.4
20260901233046 55 93 3.0 13.0 0.00 0.14 0.00 74 1008.5
20260901231543 55 132 3.0 14.0 0.00 0.14 0.00 73 1008.3
20260901230045 54 46 3.0 10.0 0.00 0.14 0.00 74 1008.4
20260901224531 54 165 2.0 13.0 0.00 0.14 0.00 74 1008.2
20260901223029 54 117 4.0 11.0 0.00 0.14 0.00 73 1008.2
20260901221527 53 88 3.0 9.0 0.00 0.14 0.00 75 1008.1
20260901220036 52 164 3.0 11.0 0.00 0.14 0.00 75 1007.8
20260901214515 52 192 1.0 8.0 0.00 0.14 0.00 77 1007.8
20260901213010 50 12 2.0 7.0 0.00 0.14 0.00 79 1007.7
20260901211510 50 169 0.0 6.0 0.00 0.14 0.00 80 1007.7
20260901210009 50 142 2.0 7.0 0.00 0.14 0.00 79 1007.5
20260901204502 49 160 0.0 6.0 0.00 0.14 0.00 80 1007.1
20260901203115 50 123 0.0 4.0 0.00 0.14 0.00 80 1007.0
20260901201557 50 198 0.0 7.0 0.00 0.14 0.00 80 1006.8
20260901200059 50 129 0.0 7.0 0.00 0.14 0.00 81 1006.8
20260901194559 50 159 3.0 7.0 0.00 0.14 0.00 81 1006.6
20260901193053 50 181 0.0 11.0 0.00 0.14 0.00 80 1006.5
20260901191559 50 161 1.0 10.0 0.00 0.14 0.00 79 1006.5
20260901190104 50 124 2.0 10.0 0.00 0.14 0.00 79 1006.3
20260901184545 50 119 1.0 10.0 0.00 0.14 0.00 80 1006.0
20260901183043 50 35 1.0 5.0 0.00 0.14 0.00 81 1006.0
20260901181539 50 128 4.0 8.0 0.00 0.14 0.00 81 1005.9
20260901180037 50 95 1.0 9.0 0.00 0.14 0.00 81 1005.6
20260901174538 50 117 0.0 7.0 0.00 0.14 0.00 80 1005.7
20260901173033 50 105 0.0 10.0 0.00 0.14 0.00 80 1005.5
20260901171532 51 62 1.0 7.0 0.00 0.14 0.00 78 1005.4
20260901170032 51 117 4.0 11.0 0.00 0.14 0.00 78 1005.4